Time,TemperatureF,DewpointF,PressureIn,WindDirection,WindDirectionDegrees,WindSpeedMPH,WindSpeedGustMPH,Humidity,HourlyPrecipIn,Conditions,Clouds,dailyrainin,SoftwareType,DateUTC
2013-09-19 00:01:00,76.1,66.8,29.10,North,10,0.0,0.0,73,0.00,,---,0.00,VWS V12.08,2013-09-19 05:01:00,
2013-09-19 00:07:00,75.9,66.6,29.10,WNW,299,0.0,0.0,73,0.00,,---,0.00,VWS V12.08,2013-09-19 05:07:00,
2013-09-19 00:13:00,75.7,66.4,29.10,North,0,0.0,1.0,73,0.00,,---,0.00,VWS V12.08,2013-09-19 05:13:00,
2013-09-19 00:19:00,75.5,66.6,29.10,WNW,285,0.0,1.0,74,0.00,,---,0.00,VWS V12.08,2013-09-19 05:19:00,
2013-09-19 00:24:00,75.6,66.7,29.10,NNW,339,0.0,1.0,74,0.00,,---,0.00,VWS V12.08,2013-09-19 05:24:00,
2013-09-19 00:29:00,75.6,66.7,29.10,NNW,335,0.0,1.0,74,0.00,,---,0.00,VWS V12.08,2013-09-19 05:29:00,
2013-09-19 00:35:00,75.6,66.7,29.10,NW,315,0.0,0.0,74,0.00,,---,0.00,VWS V12.08,2013-09-19 05:35:00,
2013-09-19 00:40:00,75.5,66.6,29.10,North,0,0.0,1.0,74,0.00,,---,0.00,VWS V12.08,2013-09-19 05:40:00,
2013-09-19 00:46:00,75.5,67.0,29.10,North,359,0.0,1.0,75,0.00,,---,0.00,VWS V12.08,2013-09-19 05:46:00,
2013-09-19 00:52:00,75.4,66.9,29.10,NW,310,0.0,1.0,75,0.00,,---,0.00,VWS V12.08,2013-09-19 05:52:00,
2013-09-19 00:57:00,75.3,66.8,29.10,North,349,0.0,1.0,75,0.00,,---,0.00,VWS V12.08,2013-09-19 05:57:00,
2013-09-19 01:02:00,75.2,66.7,29.10,NNW,331,0.0,2.0,75,0.00,,---,0.00,VWS V12.08,2013-09-19 06:02:00,
2013-09-19 01:07:00,75.1,66.6,29.10,North,359,0.0,2.0,75,0.00,,---,0.00,VWS V12.08,2013-09-19 06:07:00,
2013-09-19 01:12:00,75.0,66.9,29.11,North,350,0.0,2.0,76,0.00,,---,0.00,VWS V12.08,2013-09-19 06:12:00,
2013-09-19 01:17:00,74.9,66.8,29.10,NNW,343,0.0,2.0,76,0.00,,---,0.00,VWS V12.08,2013-09-19 06:17:00,
2013-09-19 01:22:00,74.8,66.7,29.10,North,4,0.0,2.0,76,0.00,,---,0.00,VWS V12.08,2013-09-19 06:22:00,
2013-09-19 01:28:00,74.7,66.6,29.10,North,357,0.0,2.0,76,0.00,,---,0.00,VWS V12.08,2013-09-19 06:28:00,
2013-09-19 01:33:00,74.6,66.9,29.11,WNW,292,0.0,0.0,77,0.00,,---,0.00,VWS V12.08,2013-09-19 06:33:00,
2013-09-19 01:39:00,74.4,66.7,29.10,NNW,342,0.0,1.0,77,0.00,,---,0.00,VWS V12.08,2013-09-19 06:39:00,
2013-09-19 01:44:00,74.4,66.7,29.10,North,353,0.0,1.0,77,0.00,,---,0.00,VWS V12.08,2013-09-19 06:44:00,
2013-09-19 01:50:00,74.3,66.6,29.10,NNW,332,0.0,1.0,77,0.00,,---,0.00,VWS V12.08,2013-09-19 06:50:00,
2013-09-19 01:55:00,74.3,66.6,29.11,North,358,0.0,1.0,77,0.00,,---,0.00,VWS V12.08,2013-09-19 06:55:00,
2013-09-19 02:00:00,74.3,66.6,29.11,North,358,0.0,0.0,77,0.00,,---,0.00,VWS V12.08,2013-09-19 07:00:00,
2013-09-19 02:05:00,74.2,66.5,29.10,NNW,345,1.0,1.0,77,0.00,,---,0.00,VWS V12.08,2013-09-19 07:05:00,
2013-09-19 02:10:00,74.1,66.4,29.10,NNW,345,0.0,1.0,77,0.00,,---,0.00,VWS V12.08,2013-09-19 07:10:00,
2013-09-19 02:16:00,74.1,66.8,29.10,North,358,0.0,1.0,78,0.00,,---,0.00,VWS V12.08,2013-09-19 07:16:00,
2013-09-19 02:21:00,74.1,66.8,29.10,NNW,329,1.0,1.0,78,0.00,,---,0.00,VWS V12.08,2013-09-19 07:21:00,
2013-09-19 02:26:00,74.0,66.7,29.10,NNW,345,0.0,1.0,78,0.00,,---,0.00,VWS V12.08,2013-09-19 07:26:00,
2013-09-19 02:31:00,74.0,66.7,29.10,NNW,347,1.0,1.0,78,0.00,,---,0.00,VWS V12.08,2013-09-19 07:31:00,
2013-09-19 02:36:00,73.9,66.6,29.10,North,353,0.0,2.0,78,0.00,,---,0.00,VWS V12.08,2013-09-19 07:36:00,
2013-09-19 02:42:00,73.8,66.5,29.10,North,0,0.0,2.0,78,0.00,,---,0.00,VWS V12.08,2013-09-19 07:42:00,
2013-09-19 02:47:00,73.8,66.5,29.09,NNW,340,0.0,2.0,78,0.00,,---,0.00,VWS V12.08,2013-09-19 07:47:00,
2013-09-19 02:52:00,73.8,66.9,29.10,North,349,0.0,2.0,79,0.00,,---,0.00,VWS V12.08,2013-09-19 07:52:00,
2013-09-19 02:57:00,73.7,66.8,29.09,NNW,345,0.0,2.0,79,0.00,,---,0.00,VWS V12.08,2013-09-19 07:57:00,
2013-09-19 03:03:00,73.7,66.8,29.10,North,350,1.0,2.0,79,0.00,,---,0.00,VWS V12.08,2013-09-19 08:03:00,
2013-09-19 03:09:00,73.8,66.9,29.10,NNW,348,0.0,2.0,79,0.00,,---,0.00,VWS V12.08,2013-09-19 08:09:00,
2013-09-19 03:15:00,73.7,66.8,29.09,North,357,0.0,2.0,79,0.00,,---,0.00,VWS V12.08,2013-09-19 08:15:00,
2013-09-19 03:20:00,73.7,66.8,29.09,North,352,1.0,2.0,79,0.00,,---,0.00,VWS V12.08,2013-09-19 08:20:00,
2013-09-19 03:25:00,73.7,66.8,29.09,North,359,0.0,2.0,79,0.00,,---,0.00,VWS V12.08,2013-09-19 08:25:00,
2013-09-19 03:30:00,73.8,66.9,29.09,WNW,288,0.0,2.0,79,0.00,,---,0.00,VWS V12.08,2013-09-19 08:30:00,
2013-09-19 03:35:00,73.9,67.0,29.09,WSW,241,0.0,1.0,79,0.00,,---,0.00,VWS V12.08,2013-09-19 08:35:00,
2013-09-19 03:40:00,73.9,67.0,29.09,North,352,0.0,2.0,79,0.00,,---,0.00,VWS V12.08,2013-09-19 08:40:00,
2013-09-19 03:45:00,73.9,66.6,29.09,NW,318,0.0,2.0,78,0.00,,---,0.00,VWS V12.08,2013-09-19 08:45:00,
2013-09-19 03:50:00,74.0,66.7,29.09,NNW,330,0.0,2.0,78,0.00,,---,0.00,VWS V12.08,2013-09-19 08:50:00,
2013-09-19 03:55:00,73.9,66.6,29.09,NNW,327,0.0,2.0,78,0.00,,---,0.00,VWS V12.08,2013-09-19 08:55:00,
2013-09-19 04:01:00,73.9,67.0,29.09,North,356,0.0,1.0,79,0.00,,---,0.00,VWS V12.08,2013-09-19 09:01:00,
2013-09-19 04:07:00,73.9,67.0,29.09,NW,317,0.0,2.0,79,0.00,,---,0.00,VWS V12.08,2013-09-19 09:07:00,
2013-09-19 04:12:00,73.8,66.9,29.09,NNW,329,0.0,2.0,79,0.00,,---,0.00,VWS V12.08,2013-09-19 09:12:00,
2013-09-19 04:17:00,73.8,66.9,29.09,NNW,336,0.0,2.0,79,0.00,,---,0.00,VWS V12.08,2013-09-19 09:17:00,
2013-09-19 04:22:00,73.7,66.8,29.09,NNW,339,0.0,2.0,79,0.00,,---,0.00,VWS V12.08,2013-09-19 09:22:00,
2013-09-19 04:27:00,73.7,66.8,29.09,NNW,340,0.0,2.0,79,0.00,,---,0.00,VWS V12.08,2013-09-19 09:27:00,
2013-09-19 04:33:00,73.7,66.8,29.09,ENE,57,0.0,1.0,79,0.00,,---,0.00,VWS V12.08,2013-09-19 09:33:00,
2013-09-19 04:38:00,73.6,66.7,29.09,North,7,0.0,1.0,79,0.00,,---,0.00,VWS V12.08,2013-09-19 09:38:00,
2013-09-19 04:43:00,73.6,66.7,29.09,North,352,0.0,1.0,79,0.00,,---,0.00,VWS V12.08,2013-09-19 09:43:00,
2013-09-19 04:48:00,73.6,66.7,29.09,NNW,341,0.0,1.0,79,0.00,,---,0.00,VWS V12.08,2013-09-19 09:48:00,
2013-09-19 04:53:00,73.6,66.7,29.09,NNW,337,0.0,1.0,79,0.00,,---,0.00,VWS V12.08,2013-09-19 09:53:00,
2013-09-19 04:59:00,73.5,66.6,29.08,North,0,0.0,1.0,79,0.00,,---,0.00,VWS V12.08,2013-09-19 09:59:00,
2013-09-19 05:04:00,73.3,66.4,29.08,North,351,0.0,1.0,79,0.00,,---,0.00,VWS V12.08,2013-09-19 10:04:00,
2013-09-19 05:09:00,73.2,66.7,29.08,NNW,327,0.0,1.0,80,0.00,,---,0.00,VWS V12.08,2013-09-19 10:09:00,
2013-09-19 05:14:00,73.0,66.5,29.08,West,264,0.0,2.0,80,0.00,,---,0.00,VWS V12.08,2013-09-19 10:14:00,
2013-09-19 05:19:00,72.8,66.6,29.08,West,271,0.0,2.0,81,0.00,,---,0.00,VWS V12.08,2013-09-19 10:19:00,
2013-09-19 05:25:00,72.6,66.4,29.08,NNW,348,1.0,2.0,81,0.00,,---,0.00,VWS V12.08,2013-09-19 10:25:00,
2013-09-19 05:30:00,72.5,66.7,29.08,NNW,329,1.0,1.0,82,0.00,,---,0.00,VWS V12.08,2013-09-19 10:30:00,
2013-09-19 05:36:00,72.5,66.7,29.08,North,357,0.0,1.0,82,0.00,,---,0.00,VWS V12.08,2013-09-19 10:36:00,
2013-09-19 05:41:00,72.3,66.5,29.08,North,359,0.0,1.0,82,0.00,,---,0.00,VWS V12.08,2013-09-19 10:41:00,
2013-09-19 05:47:00,72.2,66.4,29.07,NNW,332,0.0,1.0,82,0.00,,---,0.00,VWS V12.08,2013-09-19 10:47:00,
2013-09-19 05:52:00,72.1,66.7,29.07,NNW,338,0.0,2.0,83,0.00,,---,0.00,VWS V12.08,2013-09-19 10:52:00,
2013-09-19 05:58:00,72.0,66.6,29.07,North,358,0.0,2.0,83,0.00,,---,0.00,VWS V12.08,2013-09-19 10:58:00,
2013-09-19 06:04:00,71.9,66.5,29.07,North,357,0.0,1.0,83,0.00,,---,0.00,VWS V12.08,2013-09-19 11:04:00,
2013-09-19 06:10:00,71.9,66.5,29.07,North,359,0.0,1.0,83,0.00,,---,0.00,VWS V12.08,2013-09-19 11:10:00,
2013-09-19 06:15:00,71.9,66.5,29.07,North,354,0.0,1.0,83,0.00,,---,0.00,VWS V12.08,2013-09-19 11:15:00,
2013-09-19 06:20:00,71.9,66.5,29.07,NNW,342,0.0,1.0,83,0.00,,---,0.00,VWS V12.08,2013-09-19 11:20:00,
2013-09-19 06:25:00,71.9,66.8,29.07,North,349,0.0,1.0,84,0.00,,---,0.00,VWS V12.08,2013-09-19 11:25:00,
2013-09-19 06:30:00,71.9,66.5,29.08,North,359,0.0,1.0,83,0.00,,---,0.00,VWS V12.08,2013-09-19 11:30:00,
2013-09-19 06:35:00,71.9,66.5,29.08,NNW,329,0.0,1.0,83,0.00,,---,0.00,VWS V12.08,2013-09-19 11:35:00,
2013-09-19 06:40:00,71.9,66.5,29.08,NNW,327,0.0,1.0,83,0.00,,---,0.00,VWS V12.08,2013-09-19 11:40:00,
2013-09-19 06:45:00,72.0,66.6,29.08,North,353,0.0,1.0,83,0.00,,---,0.00,VWS V12.08,2013-09-19 11:45:00,
2013-09-19 06:50:00,72.0,66.6,29.08,WNW,302,0.0,1.0,83,0.00,,---,0.00,VWS V12.08,2013-09-19 11:50:00,
2013-09-19 06:55:00,72.0,66.6,29.08,NNW,327,0.0,1.0,83,0.00,,---,0.00,VWS V12.08,2013-09-19 11:55:00,
2013-09-19 07:00:00,72.0,66.6,29.08,North,358,0.0,2.0,83,0.00,,---,0.00,VWS V12.08,2013-09-19 12:00:00,
2013-09-19 07:05:00,72.0,66.6,29.08,NW,316,1.0,1.0,83,0.00,,---,0.00,VWS V12.08,2013-09-19 12:05:00,
2013-09-19 07:11:00,72.2,66.8,29.08,NW,313,0.0,1.0,83,0.00,,---,0.00,VWS V12.08,2013-09-19 12:11:00,
2013-09-19 07:16:00,72.4,66.9,29.08,NW,326,0.0,1.0,83,0.00,,---,0.00,VWS V12.08,2013-09-19 12:16:00,
2013-09-19 07:21:00,72.5,66.7,29.08,NW,322,0.0,1.0,82,0.00,,---,0.00,VWS V12.08,2013-09-19 12:21:00,
2013-09-19 07:27:00,72.6,66.8,29.08,North,349,0.0,2.0,82,0.00,,---,0.00,VWS V12.08,2013-09-19 12:27:00,
2013-09-19 07:32:00,72.9,67.1,29.08,North,353,0.0,1.0,82,0.00,,---,0.00,VWS V12.08,2013-09-19 12:32:00,
2013-09-19 07:37:00,73.4,66.9,29.08,NNW,335,0.0,2.0,80,0.00,,---,0.00,VWS V12.08,2013-09-19 12:37:00,
2013-09-19 07:42:00,73.9,67.0,29.08,NNW,330,0.0,2.0,79,0.00,,---,0.00,VWS V12.08,2013-09-19 12:42:00,
2013-09-19 07:47:00,74.2,67.3,29.08,NW,324,0.0,2.0,79,0.00,,---,0.00,VWS V12.08,2013-09-19 12:47:00,
2013-09-19 07:52:00,74.4,67.1,29.08,North,354,0.0,2.0,78,0.00,,---,0.00,VWS V12.08,2013-09-19 12:52:00,
2013-09-19 07:57:00,74.7,67.0,29.08,North,356,0.0,2.0,77,0.00,,---,0.00,VWS V12.08,2013-09-19 12:57:00,
2013-09-19 08:02:00,75.1,67.0,29.08,NNW,346,0.0,1.0,76,0.00,,---,0.00,VWS V12.08,2013-09-19 13:02:00,
2013-09-19 08:07:00,75.5,67.4,29.08,WSW,245,0.0,2.0,76,0.00,,---,0.00,VWS V12.08,2013-09-19 13:07:00,
2013-09-19 08:12:00,75.9,67.4,29.08,NW,320,0.0,2.0,75,0.00,,---,0.00,VWS V12.08,2013-09-19 13:12:00,
2013-09-19 08:17:00,76.1,67.2,29.08,NNW,346,0.0,2.0,74,0.00,,---,0.00,VWS V12.08,2013-09-19 13:17:00,
2013-09-19 08:22:00,76.4,67.1,29.07,NNW,347,0.0,2.0,73,0.00,,---,0.00,VWS V12.08,2013-09-19 13:22:00,
2013-09-19 08:28:00,76.7,67.4,29.08,NW,324,0.0,2.0,73,0.00,,---,0.00,VWS V12.08,2013-09-19 13:28:00,
2013-09-19 08:33:00,77.0,67.3,29.07,NNW,341,0.0,1.0,72,0.00,,---,0.00,VWS V12.08,2013-09-19 13:33:00,
2013-09-19 08:38:00,77.3,67.6,29.08,North,357,0.0,2.0,72,0.00,,---,0.00,VWS V12.08,2013-09-19 13:38:00,
2013-09-19 08:43:00,77.6,67.5,29.08,NNW,339,0.0,4.0,71,0.00,,---,0.00,VWS V12.08,2013-09-19 13:43:00,
2013-09-19 08:48:00,78.0,67.4,29.08,North,351,0.0,4.0,70,0.00,,---,0.00,VWS V12.08,2013-09-19 13:48:00,
2013-09-19 08:54:00,78.5,67.5,29.08,NNW,335,0.0,4.0,69,0.00,,---,0.00,VWS V12.08,2013-09-19 13:54:00,
2013-09-19 08:59:00,78.8,67.4,29.08,NW,319,0.0,4.0,68,0.00,,---,0.00,VWS V12.08,2013-09-19 13:59:00,
2013-09-19 09:04:00,79.2,67.3,29.08,West,277,0.0,3.0,67,0.00,,---,0.00,VWS V12.08,2013-09-19 14:04:00,
2013-09-19 09:09:00,79.7,67.8,29.08,NW,315,0.0,3.0,67,0.00,,---,0.00,VWS V12.08,2013-09-19 14:09:00,
2013-09-19 09:15:00,79.8,67.4,29.08,NW,309,0.0,3.0,66,0.00,,---,0.00,VWS V12.08,2013-09-19 14:15:00,
2013-09-19 09:20:00,79.8,67.0,29.08,WSW,245,0.0,3.0,65,0.00,,---,0.00,VWS V12.08,2013-09-19 14:20:00,
2013-09-19 09:25:00,79.7,66.9,29.08,SW,235,0.0,3.0,65,0.00,,---,0.00,VWS V12.08,2013-09-19 14:25:00,
2013-09-19 09:30:00,80.1,67.3,29.08,NNW,348,1.0,1.0,65,0.00,,---,0.00,VWS V12.08,2013-09-19 14:30:00,
2013-09-19 09:36:00,80.5,67.2,29.08,West,265,1.0,3.0,64,0.00,,---,0.00,VWS V12.08,2013-09-19 14:36:00,
2013-09-19 09:41:00,80.8,67.5,29.08,SSW,213,0.0,3.0,64,0.00,,---,0.00,VWS V12.08,2013-09-19 14:41:00,
2013-09-19 09:46:00,81.1,67.3,29.08,SW,223,0.0,3.0,63,0.00,,---,0.00,VWS V12.08,2013-09-19 14:46:00,
2013-09-19 09:51:00,81.2,66.9,29.09,WNW,293,0.0,4.0,62,0.00,,---,0.00,VWS V12.08,2013-09-19 14:51:00,
2013-09-19 09:56:00,81.2,66.9,29.08,NW,318,2.0,4.0,62,0.00,,---,0.00,VWS V12.08,2013-09-19 14:56:00,
2013-09-19 10:01:00,81.0,66.8,29.08,WNW,294,1.0,4.0,62,0.00,,---,0.00,VWS V12.08,2013-09-19 15:01:00,
2013-09-19 10:06:00,80.8,66.6,29.09,NW,318,0.0,4.0,62,0.00,,---,0.00,VWS V12.08,2013-09-19 15:06:00,
2013-09-19 10:11:00,80.8,66.6,29.09,WNW,290,0.0,4.0,62,0.00,,---,0.00,VWS V12.08,2013-09-19 15:11:00,
2013-09-19 10:16:00,81.2,66.9,29.09,West,272,0.0,4.0,62,0.00,,---,0.00,VWS V12.08,2013-09-19 15:16:00,
2013-09-19 10:21:00,81.6,66.9,29.09,WNW,296,0.0,4.0,61,0.00,,---,0.00,VWS V12.08,2013-09-19 15:21:00,
2013-09-19 10:27:00,81.7,66.9,29.09,NNW,329,1.0,4.0,61,0.00,,---,0.00,VWS V12.08,2013-09-19 15:27:00,
2013-09-19 10:32:00,81.6,66.9,29.09,North,354,0.0,2.0,61,0.00,,---,0.00,VWS V12.08,2013-09-19 15:32:00,
2013-09-19 10:37:00,82.0,67.2,29.09,West,279,0.0,3.0,61,0.00,,---,0.00,VWS V12.08,2013-09-19 15:37:00,
2013-09-19 10:42:00,82.3,67.0,29.09,WNW,301,2.0,3.0,60,0.00,,---,0.00,VWS V12.08,2013-09-19 15:42:00,
2013-09-19 10:47:00,82.4,67.1,29.09,NW,321,0.0,3.0,60,0.00,,---,0.00,VWS V12.08,2013-09-19 15:47:00,
2013-09-19 10:53:00,82.8,67.5,29.09,NW,318,0.0,6.0,60,0.00,,---,0.00,VWS V12.08,2013-09-19 15:53:00,
2013-09-19 10:58:00,83.2,66.9,29.09,NNW,332,1.0,6.0,58,0.00,,---,0.00,VWS V12.08,2013-09-19 15:58:00,
2013-09-19 11:03:00,83.6,66.8,29.09,NNW,336,0.0,3.0,57,0.00,,---,0.00,VWS V12.08,2013-09-19 16:03:00,
2013-09-19 11:09:00,83.7,66.9,29.09,NNW,336,0.0,9.0,57,0.00,,---,0.00,VWS V12.08,2013-09-19 16:09:00,
2013-09-19 11:14:00,83.7,66.9,29.09,NW,314,0.0,9.0,57,0.00,,---,0.00,VWS V12.08,2013-09-19 16:14:00,
2013-09-19 11:20:00,83.9,67.1,29.09,NNW,336,2.0,10.0,57,0.00,,---,0.00,VWS V12.08,2013-09-19 16:20:00,
2013-09-19 11:26:00,84.3,66.9,29.10,NW,317,0.0,10.0,56,0.00,,---,0.00,VWS V12.08,2013-09-19 16:26:00,
2013-09-19 11:31:00,84.2,66.8,29.10,NNW,332,1.0,3.0,56,0.00,,---,0.00,VWS V12.08,2013-09-19 16:31:00,
2013-09-19 11:36:00,84.3,67.4,29.09,NNW,345,0.0,3.0,57,0.00,,---,0.00,VWS V12.08,2013-09-19 16:36:00,
2013-09-19 11:41:00,84.6,66.7,29.09,NW,322,0.0,3.0,55,0.00,,---,0.00,VWS V12.08,2013-09-19 16:41:00,
2013-09-19 11:46:00,85.0,67.0,29.09,NNW,347,0.0,3.0,55,0.00,,---,0.00,VWS V12.08,2013-09-19 16:46:00,
2013-09-19 11:51:00,85.2,66.7,29.10,NNW,329,0.0,5.0,54,0.00,,---,0.00,VWS V12.08,2013-09-19 16:51:00,
2013-09-19 11:56:00,85.5,67.0,29.10,NNW,343,1.0,5.0,54,0.00,,---,0.00,VWS V12.08,2013-09-19 16:56:00,
2013-09-19 12:02:00,85.6,67.1,29.10,NW,318,1.0,2.0,54,0.00,,---,0.00,VWS V12.08,2013-09-19 17:02:00,
2013-09-19 12:08:00,85.1,66.6,29.09,North,350,1.0,2.0,54,0.00,,---,0.00,VWS V12.08,2013-09-19 17:08:00,
2013-09-19 12:13:00,84.8,66.8,29.10,NW,325,0.0,2.0,55,0.00,,---,0.00,VWS V12.08,2013-09-19 17:13:00,
2013-09-19 12:18:00,84.5,67.1,29.10,NW,320,1.0,7.0,56,0.00,,---,0.00,VWS V12.08,2013-09-19 17:18:00,
2013-09-19 12:23:00,84.4,66.5,29.09,NNW,340,0.0,7.0,55,0.00,,---,0.00,VWS V12.08,2013-09-19 17:23:00,
2013-09-19 12:28:00,84.4,67.0,29.09,NNW,332,1.0,7.0,56,0.00,,---,0.00,VWS V12.08,2013-09-19 17:28:00,
2013-09-19 12:33:00,84.9,66.4,29.09,NNW,335,0.0,4.0,54,0.00,,---,0.00,VWS V12.08,2013-09-19 17:33:00,
2013-09-19 12:38:00,85.0,66.5,29.09,NW,309,0.0,4.0,54,0.00,,---,0.00,VWS V12.08,2013-09-19 17:38:00,
2013-09-19 12:43:00,85.1,66.6,29.09,NNW,345,0.0,4.0,54,0.00,,---,0.00,VWS V12.08,2013-09-19 17:43:00,
2013-09-19 12:48:00,85.2,66.7,29.08,NNW,330,0.0,4.0,54,0.00,,---,0.00,VWS V12.08,2013-09-19 17:48:00,
2013-09-19 12:53:00,85.4,66.9,29.08,NW,323,0.0,4.0,54,0.00,,---,0.00,VWS V12.08,2013-09-19 17:53:00,
2013-09-19 12:58:00,85.7,67.2,29.08,North,351,0.0,4.0,54,0.00,,---,0.00,VWS V12.08,2013-09-19 17:58:00,
2013-09-19 13:03:00,86.5,67.9,29.08,NNW,334,0.0,2.0,54,0.00,,---,0.00,VWS V12.08,2013-09-19 18:03:00,
2013-09-19 13:08:00,86.9,67.7,29.08,NNW,338,1.0,2.0,53,0.00,,---,0.00,VWS V12.08,2013-09-19 18:08:00,
2013-09-19 13:13:00,87.0,67.3,29.08,West,281,0.0,5.0,52,0.00,,---,0.00,VWS V12.08,2013-09-19 18:13:00,
2013-09-19 13:18:00,86.7,67.5,29.08,WNW,296,0.0,5.0,53,0.00,,---,0.00,VWS V12.08,2013-09-19 18:18:00,
2013-09-19 13:23:00,87.0,67.8,29.07,WNW,293,0.0,5.0,53,0.00,,---,0.00,VWS V12.08,2013-09-19 18:23:00,
2013-09-19 13:28:00,87.2,68.0,29.06,West,279,0.0,5.0,53,0.00,,---,0.00,VWS V12.08,2013-09-19 18:28:00,
2013-09-19 13:33:00,87.0,67.8,29.06,NNW,330,0.0,1.0,53,0.00,,---,0.00,VWS V12.08,2013-09-19 18:33:00,
2013-09-19 13:38:00,86.5,67.3,29.07,WNW,283,0.0,2.0,53,0.00,,---,0.00,VWS V12.08,2013-09-19 18:38:00,
2013-09-19 13:43:00,86.3,67.7,29.07,WSW,252,0.0,3.0,54,0.00,,---,0.00,VWS V12.08,2013-09-19 18:43:00,
2013-09-19 13:48:00,86.3,67.7,29.06,NW,324,0.0,3.0,54,0.00,,---,0.00,VWS V12.08,2013-09-19 18:48:00,
2013-09-19 13:53:00,86.4,67.8,29.06,NW,312,0.0,3.0,54,0.00,,---,0.00,VWS V12.08,2013-09-19 18:53:00,
2013-09-19 13:58:00,86.1,67.5,29.06,NNW,333,0.0,3.0,54,0.00,,---,0.00,VWS V12.08,2013-09-19 18:58:00,
2013-09-19 14:03:00,86.2,67.6,29.07,NNW,347,0.0,1.0,54,0.00,,---,0.00,VWS V12.08,2013-09-19 19:03:00,
2013-09-19 14:08:00,86.6,68.0,29.06,NW,322,1.0,2.0,54,0.00,,---,0.00,VWS V12.08,2013-09-19 19:08:00,
2013-09-19 14:13:00,87.0,67.8,29.06,NNW,333,0.0,2.0,53,0.00,,---,0.00,VWS V12.08,2013-09-19 19:13:00,
2013-09-19 14:18:00,86.7,68.1,29.06,NNW,340,0.0,2.0,54,0.00,,---,0.00,VWS V12.08,2013-09-19 19:18:00,
2013-09-19 14:24:00,87.1,68.4,29.06,WNW,303,0.0,3.0,54,0.00,,---,0.00,VWS V12.08,2013-09-19 19:24:00,
2013-09-19 14:29:00,86.8,68.2,29.06,NW,316,0.0,3.0,54,0.00,,---,0.00,VWS V12.08,2013-09-19 19:29:00,
2013-09-19 14:34:00,86.5,67.9,29.05,NW,320,1.0,2.0,54,0.00,,---,0.00,VWS V12.08,2013-09-19 19:34:00,
2013-09-19 14:39:00,87.0,68.4,29.05,NNW,336,0.0,3.0,54,0.00,,---,0.00,VWS V12.08,2013-09-19 19:39:00,
2013-09-19 14:44:00,87.2,68.5,29.04,NW,316,0.0,4.0,54,0.00,,---,0.00,VWS V12.08,2013-09-19 19:44:00,
2013-09-19 14:49:00,88.0,69.3,29.04,West,273,0.0,4.0,54,0.00,,---,0.00,VWS V12.08,2013-09-19 19:49:00,
2013-09-19 14:54:00,87.4,68.7,29.04,NNW,337,0.0,4.0,54,0.00,,---,0.00,VWS V12.08,2013-09-19 19:54:00,
2013-09-19 14:59:00,87.2,68.5,29.03,West,271,0.0,4.0,54,0.00,,---,0.00,VWS V12.08,2013-09-19 19:59:00,
2013-09-19 15:04:00,87.4,68.7,29.03,NW,311,0.0,2.0,54,0.00,,---,0.00,VWS V12.08,2013-09-19 20:04:00,
2013-09-19 15:10:00,87.5,68.8,29.02,WNW,298,0.0,2.0,54,0.00,,---,0.00,VWS V12.08,2013-09-19 20:10:00,
2013-09-19 15:15:00,87.5,68.8,29.01,WNW,292,0.0,2.0,54,0.00,,---,0.00,VWS V12.08,2013-09-19 20:15:00,
2013-09-19 15:20:00,87.7,68.5,29.01,NW,319,0.0,2.0,53,0.00,,---,0.00,VWS V12.08,2013-09-19 20:20:00,
2013-09-19 15:25:00,87.8,68.0,29.01,WNW,295,2.0,2.0,52,0.00,,---,0.00,VWS V12.08,2013-09-19 20:25:00,
2013-09-19 15:30:00,88.0,68.2,29.01,NNW,341,0.0,1.0,52,0.00,,---,0.00,VWS V12.08,2013-09-19 20:30:00,
2013-09-19 15:35:00,88.1,67.7,29.00,WNW,294,0.0,2.0,51,0.00,,---,0.00,VWS V12.08,2013-09-19 20:35:00,
2013-09-19 15:40:00,87.9,67.5,29.00,NNW,327,1.0,2.0,51,0.00,,---,0.00,VWS V12.08,2013-09-19 20:40:00,
2013-09-19 15:45:00,87.9,68.1,29.00,NNW,327,0.0,2.0,52,0.00,,---,0.00,VWS V12.08,2013-09-19 20:45:00,
2013-09-19 15:50:00,88.0,67.6,29.00,WNW,303,0.0,2.0,51,0.00,,---,0.00,VWS V12.08,2013-09-19 20:50:00,
2013-09-19 15:55:00,87.9,67.5,29.00,NNW,330,0.0,2.0,51,0.00,,---,0.00,VWS V12.08,2013-09-19 20:55:00,
2013-09-19 16:00:00,87.9,66.9,29.00,WSW,253,0.0,0.0,50,0.00,,---,0.00,VWS V12.08,2013-09-19 21:00:00,
2013-09-19 16:06:00,88.1,67.1,28.99,North,354,0.0,1.0,50,0.00,,---,0.00,VWS V12.08,2013-09-19 21:06:00,
2013-09-19 16:11:00,88.0,67.6,28.99,NW,310,0.0,2.0,51,0.00,,---,0.00,VWS V12.08,2013-09-19 21:11:00,
2013-09-19 16:16:00,88.1,67.1,28.99,North,355,1.0,2.0,50,0.00,,---,0.00,VWS V12.08,2013-09-19 21:16:00,
2013-09-19 16:21:00,88.3,67.3,28.98,North,0,0.0,2.0,50,0.00,,---,0.00,VWS V12.08,2013-09-19 21:21:00,
2013-09-19 16:26:00,88.3,67.3,28.97,NNW,341,0.0,2.0,50,0.00,,---,0.00,VWS V12.08,2013-09-19 21:26:00,
2013-09-19 16:31:00,88.3,67.3,28.97,NW,324,0.0,1.0,50,0.00,,---,0.00,VWS V12.08,2013-09-19 21:31:00,
2013-09-19 16:36:00,88.1,67.7,28.97,NW,304,0.0,1.0,51,0.00,,---,0.00,VWS V12.08,2013-09-19 21:36:00,
2013-09-19 16:41:00,88.0,67.6,28.97,NNW,327,0.0,3.0,51,0.00,,---,0.00,VWS V12.08,2013-09-19 21:41:00,
2013-09-19 16:46:00,87.8,67.4,28.97,NNW,347,0.0,3.0,51,0.00,,---,0.00,VWS V12.08,2013-09-19 21:46:00,
2013-09-19 16:51:00,87.7,66.8,28.96,NNW,339,0.0,4.0,50,0.00,,---,0.00,VWS V12.08,2013-09-19 21:51:00,
2013-09-19 16:56:00,87.7,66.8,28.96,NW,304,0.0,4.0,50,0.00,,---,0.00,VWS V12.08,2013-09-19 21:56:00,
2013-09-19 17:01:00,87.6,66.7,28.97,NNW,344,0.0,1.0,50,0.00,,---,0.00,VWS V12.08,2013-09-19 22:01:00,
2013-09-19 17:06:00,87.5,66.6,28.97,SW,228,0.0,3.0,50,0.00,,---,0.00,VWS V12.08,2013-09-19 22:06:00,
2013-09-19 17:11:00,87.3,66.4,28.98,SSW,193,0.0,3.0,50,0.00,,---,0.00,VWS V12.08,2013-09-19 22:11:00,
2013-09-19 17:16:00,87.2,66.3,29.01,West,279,0.0,7.0,50,0.00,,---,0.00,VWS V12.08,2013-09-19 22:16:00,
2013-09-19 17:21:00,87.2,66.9,29.09,NNW,341,5.0,9.0,51,0.00,,---,0.00,VWS V12.08,2013-09-19 22:21:00,
2013-09-19 17:26:00,79.7,63.1,29.12,WNW,293,2.0,9.0,57,0.00,,---,0.00,VWS V12.08,2013-09-19 22:26:00,
2013-09-19 17:31:00,71.3,61.8,29.10,NNW,337,0.0,3.0,72,0.08,,---,0.09,VWS V12.08,2013-09-19 22:31:00,
2013-09-19 17:36:00,67.8,61.8,29.11,NNW,340,1.0,3.0,81,0.27,,---,0.28,VWS V12.08,2013-09-19 22:36:00,
2013-09-19 17:41:00,65.9,61.3,29.12,WNW,303,0.0,5.0,85,0.47,,---,0.48,VWS V12.08,2013-09-19 22:41:00,
2013-09-19 17:47:00,65.0,61.0,29.12,WNW,284,0.0,5.0,87,0.53,,---,0.54,VWS V12.08,2013-09-19 22:47:00,
2013-09-19 17:52:00,64.8,61.5,29.11,NW,311,0.0,5.0,89,0.58,,---,0.59,VWS V12.08,2013-09-19 22:52:00,
2013-09-19 17:57:00,64.8,61.8,29.12,NW,311,1.0,5.0,90,0.63,,---,0.63,VWS V12.08,2013-09-19 22:57:00,
2013-09-19 18:02:00,64.7,61.7,29.13,WNW,291,1.0,2.0,90,0.65,,---,0.65,VWS V12.08,2013-09-19 23:02:00,
2013-09-19 18:07:00,64.8,62.1,29.12,NW,317,0.0,2.0,91,0.67,,---,0.67,VWS V12.08,2013-09-19 23:07:00,
2013-09-19 18:12:00,64.8,62.1,29.11,NNW,331,5.0,5.0,91,0.69,,---,0.69,VWS V12.08,2013-09-19 23:12:00,
2013-09-19 18:17:00,65.0,62.3,29.10,NNW,332,0.0,5.0,91,0.69,,---,0.69,VWS V12.08,2013-09-19 23:17:00,
2013-09-19 18:22:00,65.1,62.4,29.10,NNW,335,0.0,5.0,91,0.70,,---,0.70,VWS V12.08,2013-09-19 23:22:00,
2013-09-19 18:27:00,65.4,63.0,29.09,North,352,0.0,5.0,92,0.71,,---,0.71,VWS V12.08,2013-09-19 23:27:00,
2013-09-19 18:32:00,65.4,62.7,29.08,NW,319,0.0,0.0,91,0.66,,---,0.71,VWS V12.08,2013-09-19 23:32:00,
2013-09-19 18:37:00,65.6,63.2,29.08,NNW,342,0.0,1.0,92,0.67,,---,0.72,VWS V12.08,2013-09-19 23:37:00,
2013-09-19 18:42:00,65.7,63.3,29.08,NW,314,0.0,1.0,92,0.67,,---,0.72,VWS V12.08,2013-09-19 23:42:00,
2013-09-19 18:47:00,65.6,62.9,29.09,NW,311,0.0,1.0,91,0.67,,---,0.72,VWS V12.08,2013-09-19 23:47:00,
2013-09-19 18:52:00,65.5,62.8,29.09,NW,310,0.0,1.0,91,0.68,,---,0.73,VWS V12.08,2013-09-19 23:52:00,
2013-09-19 18:57:00,65.4,62.7,29.09,NW,309,0.0,1.0,91,0.69,,---,0.74,VWS V12.08,2013-09-19 23:57:00,
2013-09-19 19:02:00,65.4,62.7,29.09,NNW,348,0.0,0.0,91,0.10,,---,0.75,VWS V12.08,2013-09-20 00:02:00,
2013-09-19 19:07:00,65.2,62.5,29.09,NW,313,0.0,0.0,91,0.11,,---,0.77,VWS V12.08,2013-09-20 00:07:00,
2013-09-19 19:12:00,65.3,62.6,29.09,NW,324,0.0,0.0,91,0.12,,---,0.78,VWS V12.08,2013-09-20 00:12:00,
2013-09-19 19:17:00,65.4,62.7,29.09,NW,309,0.0,1.0,91,0.14,,---,0.79,VWS V12.08,2013-09-20 00:17:00,
2013-09-19 19:23:00,65.2,62.8,29.07,NW,309,0.0,1.0,92,0.15,,---,0.80,VWS V12.08,2013-09-20 00:23:00,
2013-09-19 19:28:00,65.4,63.0,29.06,NW,309,0.0,1.0,92,0.16,,---,0.81,VWS V12.08,2013-09-20 00:28:00,
2013-09-19 19:33:00,65.3,62.9,29.05,NW,316,0.0,0.0,92,0.11,,---,0.82,VWS V12.08,2013-09-20 00:33:00,
2013-09-19 19:38:00,65.4,63.0,29.05,NW,315,0.0,0.0,92,0.11,,---,0.82,VWS V12.08,2013-09-20 00:38:00,
2013-09-19 19:44:00,65.8,63.4,29.05,North,359,0.0,0.0,92,0.12,,---,0.84,VWS V12.08,2013-09-20 00:44:00,
2013-09-19 19:49:00,65.8,63.4,29.04,NNE,23,0.0,0.0,92,0.13,,---,0.85,VWS V12.08,2013-09-20 00:49:00,
2013-09-19 19:54:00,65.9,63.5,29.03,NNE,21,0.0,0.0,92,0.14,,---,0.85,VWS V12.08,2013-09-20 00:54:00,
2013-09-19 19:59:00,66.0,63.6,29.03,NE,38,0.0,0.0,92,0.15,,---,0.86,VWS V12.08,2013-09-20 00:59:00,
2013-09-19 20:04:00,65.9,63.5,29.03,NE,46,0.0,0.0,92,0.12,,---,0.87,VWS V12.08,2013-09-20 01:04:00,
2013-09-19 20:09:00,65.9,63.5,29.03,West,264,0.0,0.0,92,0.13,,---,0.88,VWS V12.08,2013-09-20 01:09:00,
2013-09-19 20:14:00,66.0,63.6,29.05,SSE,167,0.0,0.0,92,0.13,,---,0.88,VWS V12.08,2013-09-20 01:14:00,
2013-09-19 20:20:00,65.5,63.1,29.05,South,174,0.0,0.0,92,0.13,,---,0.88,VWS V12.08,2013-09-20 01:20:00,
2013-09-19 20:25:00,65.4,63.0,29.06,SW,233,0.0,0.0,92,0.14,,---,0.89,VWS V12.08,2013-09-20 01:25:00,
2013-09-19 20:30:00,65.2,62.8,29.06,South,188,0.0,0.0,92,0.14,,---,0.89,VWS V12.08,2013-09-20 01:30:00,
2013-09-19 20:35:00,65.1,62.7,29.07,South,180,0.0,0.0,92,0.08,,---,0.89,VWS V12.08,2013-09-20 01:35:00,
2013-09-19 20:40:00,65.1,62.7,29.09,NNW,347,0.0,1.0,92,0.09,,---,0.90,VWS V12.08,2013-09-20 01:40:00,
2013-09-19 20:45:00,65.1,62.7,29.09,NW,326,0.0,1.0,92,0.09,,---,0.90,VWS V12.08,2013-09-20 01:45:00,
2013-09-19 20:50:00,65.1,63.0,29.09,WNW,303,0.0,1.0,93,0.10,,---,0.91,VWS V12.08,2013-09-20 01:50:00,
2013-09-19 20:55:00,65.0,62.9,29.10,WNW,303,0.0,1.0,93,0.11,,---,0.92,VWS V12.08,2013-09-20 01:55:00,
2013-09-19 21:01:00,65.0,62.9,29.10,WNW,286,0.0,1.0,93,0.07,,---,0.93,VWS V12.08,2013-09-20 02:01:00,
2013-09-19 21:06:00,65.0,62.9,29.11,NNW,340,0.0,1.0,93,0.08,,---,0.94,VWS V12.08,2013-09-20 02:06:00,
2013-09-19 21:11:00,65.0,62.9,29.10,SSW,194,0.0,1.0,93,0.08,,---,0.94,VWS V12.08,2013-09-20 02:11:00,
2013-09-19 21:16:00,65.0,62.9,29.10,SSW,213,0.0,1.0,93,0.08,,---,0.94,VWS V12.08,2013-09-20 02:16:00,
2013-09-19 21:21:00,65.0,62.9,29.11,SSW,198,0.0,1.0,93,0.08,,---,0.94,VWS V12.08,2013-09-20 02:21:00,
2013-09-19 21:26:00,64.9,62.8,29.11,SSW,211,0.0,1.0,93,0.08,,---,0.94,VWS V12.08,2013-09-20 02:26:00,
2013-09-19 21:31:00,65.0,63.2,29.11,West,268,0.0,0.0,94,0.06,,---,0.95,VWS V12.08,2013-09-20 02:31:00,
2013-09-19 21:36:00,65.1,63.3,29.12,WNW,302,0.0,0.0,94,0.06,,---,0.95,VWS V12.08,2013-09-20 02:36:00,
2013-09-19 21:41:00,65.2,63.4,29.12,NW,308,0.0,1.0,94,0.06,,---,0.95,VWS V12.08,2013-09-20 02:41:00,
2013-09-19 21:46:00,65.3,63.5,29.13,NW,317,0.0,1.0,94,0.06,,---,0.95,VWS V12.08,2013-09-20 02:46:00,
2013-09-19 21:51:00,65.3,63.5,29.12,NNW,338,0.0,1.0,94,0.06,,---,0.95,VWS V12.08,2013-09-20 02:51:00,
2013-09-19 21:56:00,65.4,63.6,29.12,NNW,331,0.0,1.0,94,0.06,,---,0.95,VWS V12.08,2013-09-20 02:56:00,
2013-09-19 22:01:00,65.4,63.6,29.12,NNW,343,0.0,0.0,94,0.02,,---,0.95,VWS V12.08,2013-09-20 03:01:00,
2013-09-19 22:06:00,65.5,63.7,29.11,NNW,341,0.0,0.0,94,0.02,,---,0.95,VWS V12.08,2013-09-20 03:06:00,
2013-09-19 22:11:00,65.5,63.7,29.11,North,0,0.0,0.0,94,0.02,,---,0.95,VWS V12.08,2013-09-20 03:11:00,
2013-09-19 22:16:00,65.6,63.8,29.11,North,354,0.0,0.0,94,0.02,,---,0.95,VWS V12.08,2013-09-20 03:16:00,
2013-09-19 22:21:00,65.6,63.8,29.11,North,357,0.0,0.0,94,0.02,,---,0.95,VWS V12.08,2013-09-20 03:21:00,
2013-09-19 22:26:00,65.6,63.8,29.11,North,353,0.0,0.0,94,0.02,,---,0.95,VWS V12.08,2013-09-20 03:26:00,
2013-09-19 22:31:00,65.6,63.8,29.11,North,357,0.0,0.0,94,0.00,,---,0.95,VWS V12.08,2013-09-20 03:31:00,
2013-09-19 22:36:00,65.6,63.8,29.11,WNW,299,0.0,1.0,94,0.00,,---,0.95,VWS V12.08,2013-09-20 03:36:00,
2013-09-19 22:41:00,65.4,63.6,29.11,WNW,296,0.0,1.0,94,0.00,,---,0.95,VWS V12.08,2013-09-20 03:41:00,
2013-09-19 22:46:00,65.3,63.5,29.12,WNW,293,0.0,1.0,94,0.00,,---,0.95,VWS V12.08,2013-09-20 03:46:00,
2013-09-19 22:51:00,65.3,63.5,29.12,WNW,294,0.0,1.0,94,0.00,,---,0.95,VWS V12.08,2013-09-20 03:51:00,
2013-09-19 22:56:00,65.3,63.5,29.12,WNW,293,0.0,1.0,94,0.00,,---,0.95,VWS V12.08,2013-09-20 03:56:00,
2013-09-19 23:01:00,65.2,63.4,29.12,NW,308,0.0,0.0,94,0.00,,---,0.95,VWS V12.08,2013-09-20 04:01:00,
2013-09-19 23:02:00,65.2,63.4,29.12,WNW,293,0.0,0.0,94,0.00,,---,0.95,VWS V12.08,2013-09-20 04:02:00,
2013-09-19 23:03:00,65.2,63.4,29.12,WNW,294,0.0,0.0,94,0.00,,---,0.95,VWS V12.08,2013-09-20 04:03:00,
2013-09-19 23:05:00,65.2,63.4,29.12,WNW,295,0.0,0.0,94,0.00,,---,0.95,VWS V12.08,2013-09-20 04:05:00,
2013-09-19 23:10:00,65.2,63.4,29.13,WNW,296,0.0,0.0,94,0.00,,---,0.95,VWS V12.08,2013-09-20 04:10:00,
2013-09-19 23:12:00,65.2,63.4,29.13,WNW,294,0.0,0.0,94,0.00,,---,0.95,VWS V12.08,2013-09-20 04:12:00,
2013-09-19 23:17:00,65.2,63.4,29.13,WNW,293,0.0,1.0,94,0.00,,---,0.95,VWS V12.08,2013-09-20 04:17:00,
2013-09-19 23:22:00,65.2,63.4,29.14,WNW,293,0.0,1.0,94,0.00,,---,0.95,VWS V12.08,2013-09-20 04:22:00,
2013-09-19 23:27:00,65.2,63.4,29.14,WNW,293,0.0,1.0,94,0.00,,---,0.95,VWS V12.08,2013-09-20 04:27:00,
2013-09-19 23:32:00,65.2,63.4,29.14,WNW,293,0.0,0.0,94,0.00,,---,0.95,VWS V12.08,2013-09-20 04:32:00,
2013-09-19 23:37:00,65.2,63.4,29.14,WNW,293,0.0,1.0,94,0.00,,---,0.95,VWS V12.08,2013-09-20 04:37:00,
2013-09-19 23:42:00,65.2,63.4,29.14,WSW,244,0.0,1.0,94,0.00,,---,0.95,VWS V12.08,2013-09-20 04:42:00,
2013-09-19 23:48:00,65.2,63.4,29.13,NNW,328,0.0,1.0,94,0.00,,---,0.95,VWS V12.08,2013-09-20 04:48:00,
2013-09-19 23:53:00,65.2,63.4,29.13,WNW,294,0.0,1.0,94,0.00,,---,0.95,VWS V12.08,2013-09-20 04:53:00,
2013-09-19 23:58:00,65.2,63.4,29.13,NW,311,0.0,1.0,94,0.00,,---,0.95,VWS V12.08,2013-09-20 04:58:00,